sat.trackr.live / text

‹ back to catalog

STARLINK-11554 [DTC]

NORAD 62833 · 2025-019E

PAYLOAD ACTIVE UNKNOWN

§ Identity

Operator
Country
US
Launch date
2025-01-27
Launch site
AFETR
Launch vehicle
Mass (kg)
RCS (m²)

Purposes: comms

External: N2YO · Heavens-Above · Gunter

§ Orbital elements

Epoch: 2026-09-21T02:54:12.024000Z

Period
91.67 min
Inclination
43.0007°
Eccentricity
0.0001886
Mean motion
15.70837274 rev/d
Perigee alt
355.2 km
Apogee alt
357.8 km
Semi-major
6,734.6 km
B*
1.0655e-3
RAAN
208.2896°
Arg perigee
245.9346°
Mean anomaly
114.1324°
Rev number
9,461

§ Raw data

STARLINK-11554 [DTC]1 62833U 25019E   26264.12097250  .00138559  00000+0  10655-2 0  99942 62833  43.0007 208.2896 0001886 245.9346 114.1324 15.70837274 94619

JSON: /api/v1/satellites/62833 · /tle

For live sub-satellite position, see the globe view (requires WebGL).

§ Visibility from observer

Set your observer location to see the next 7 days of passes ≥ 10°. The values pass through the URL so the page stays shareable.

No JS? Fill the form by hand. The geolocation button needs JavaScript.